Regional Weather Roundup
Issued by NWS Grand Forks, ND

Home | Current Version | Previous Version | Graphics & Text | Print | Product List | Glossary On
Versions: 1 2 3 4 5 6 7 8 9 10 11 12 13 14 15 16 17 18 19 20 21 22 23 24 25 26 27 28 29 30 31 32 33 34 35 36 37 38 39 40 41 42 43 44 45 46 47 48 49 50
000
ASUS43 KFGF 191631
RWRFGF
PRAIRIE TO PINES  WEATHER ROUNDUP
NATIONAL WEATHER SERVICE EASTERN NORTH DAKOTA/GRAND FORKS ND
1100 AM CDT SAT APR 19 2014

 **SATELLITE DATA USED TO AUGMENT SKY COVER AT AUTOMATED STATIONS**
 *****  WEATHER ACROSS EASTERN NORTH DAKOTA  *****

CITY           SKY/WX    TMP DP  RH WIND       PRES   REMARKS
GRAND FORKS    MOSUNNY   55  39  54 SW16      29.79S
GRAND FRKS AFB SUNNY     58  36  43 W14G20    29.79S
GRAND FRKS NWS   N/A     57 N/A N/A SW18        N/A
DEVILS LAKE    SUNNY     52  34  50 W24G31    29.79R
FARGO          SUNNY     59  38  45 W13       29.87R
WAHPETON ARPT  MOSUNNY   59  34  38 W14G21    29.91R
$$

 ***** WEATHER ACROSS CENTRAL AND WESTERN NORTH DAKOTA  *****

CITY           SKY/WX    TMP DP  RH WIND       PRES   REMARKS
BISMARCK       SUNNY     55  29  36 W25G35    29.91R
MINOT          PTSUNNY   47  36  65 W23G39    29.81R
JAMESTOWN      SUNNY     56  29  35 W17G28    29.86R
MINOT AFB      CLOUDY    47  40  78 W28G35    29.78R
GARRISON         N/A     47  36  65 W22G35    29.85R
WILLISTON      CLOUDY    44  36  73 W14       29.88R
DICKINSON      SUNNY     51  30  44 W31G38    29.89R
HETTINGER      SUNNY     53  26  35 W22G30    29.97R
$$

 *****  OTHER AIRPORT OBSERVATIONS IN OUR AREA  *****

CITY           SKY/WX    TMP DP  RH WIND       PRES   REMARKS
WALHALLA         N/A     52  37  58 SW21G35   29.73R
GRAFTON AIRPOR FAIR      54  37  54 W23       29.77R
VALLEY CITY AR FAIR      57  32  38 W20G25    29.86S
CANDO          PTSUNNY   50  36  57 W25G36    29.76R
CAVALIER APRT  FAIR      55  37  50 W22G28    29.74R
GWINNER        SUNNY     61  36  39 SW15      29.92S
ROLLA          FAIR      46  39  76 W23G33    29.72R
 ***** THE ABOVE OBSERVATIONS ARE NON NWS ARE NOT QUALITY
       CONTROLLED AND MAY MIS-REPORT RAIN FOR SNOW...
$$

  *****  WEATHER ACROSS NORTHERN MINNESOTA  *****

CITY           SKY/WX    TMP DP  RH WIND       PRES   REMARKS
FLAG ISLAND    CLOUDY    37  32  81 SE18      29.76S
WARROAD        CLOUDY    50  43  76 S14G23    29.75F
ROSEAU         MOSUNNY   54  45  71 S21       29.73F
HALLOCK        CLOUDY    54  43  66 SW17      29.75R
THF RVR FALLS  SUNNY     54  41  62 SW17G23   29.81R
BAUDETTE       CLOUDY    43  36  76 S12G20    29.81F
WASKISH        CLOUDY    48  39  71 S9G16     29.84S
CROOKSTON      SUNNY     57  39  51 W13       29.82R
$$
  *****  WEATHER ACROSS CENTRAL AND WEST MINNESOTA  *****

CITY           SKY/WX    TMP DP  RH WIND       PRES   REMARKS
FOSSTON        MOSUNNY   57  41  54 SW23      29.84R
BEMIDJI        PTSUNNY   51  39  64 S18G29    29.85S
PARK RAPIDS    PTSUNNY   50  40  68 S23G30    29.88R
ELBOW LAKE     FAIR      57  46  65 SW16      29.90S
WADENA         PTSUNNY   54  43  66 S24       29.90R
DETROIT LAKES  MOSUNNY   55  43  62 SW16G23   29.89R
MOORHEAD       MOSUNNY   57  41  54 W13       29.88R
FERGUS FALLS   PTSUNNY   55  41  58 W13       29.88R
MORRIS MN      CLOUDY    57  46  67 S15       29.92R
STAPLES        CLOUDY    48  39  71 S16G29    29.92S
$$
  *****  WEATHER ELSEWHERE ACROSS MINNESOTA  *****

CITY           SKY/WX    TMP DP  RH WIND       PRES   REMARKS
DULUTH         PTSUNNY   35  31  85 E16       30.05F
INTRNTL FALLS  CLOUDY    38  31  76 SE15G24   29.90F
ELY            CLOUDY    34  30  86 SE10G17   30.04F
CLOQUET        PTSUNNY   45  25  45 SE13G22   30.04R
WHEATON        PTSUNNY   61  43  51 W14G20    29.95R
BRAINERD       CLOUDY    52  36  54 S22G28    29.96R
HIBBING        CLOUDY    37  32  82 SE13      30.00F
ALEXANDRIA     CLOUDY    50  42  74 S17G23    29.93R
SAINT CLOUD    PTSUNNY   48  36  63 S20G25    30.00S
MINNEAPOLIS    CLOUDY    50  34  54 SE18      30.09F
$$

  *****  WEATHER ACROSS SOUTH DAKOTA  *****

CITY           SKY/WX    TMP DP  RH WIND       PRES   REMARKS
SIOUX FALLS    MOSUNNY   64  44  48 S20       29.96S
BROOKINGS      NOT AVBL
WATERTOWN      PTSUNNY   58  40  51 NW13      29.97R
HURON          PTSUNNY   59  36  42 NW17      29.98S
SISSETON         N/A     59  38  45 NW16      29.92R
ABERDEEN       MOSUNNY   58  30  34 W13       29.96R
MITCHELL       CLOUDY    58  39  49 NW15      30.00R
PIERRE         MOSUNNY   56  29  35 W10       30.01R
MOBRIDGE       MOSUNNY   57  23  26 NW17      29.94R
RAPID CITY     MOSUNNY   56  14  19 NW7       30.03S
$$

  *****  SOME WEATHER IN NEARBY STATES *****

CITY           SKY/WX    TMP DP  RH WIND       PRES   REMARKS
GLASGOW MT     CLOUDY    42  35  76 W10       29.93R
GREAT FALLS MT SUNNY     49  14  24 SW17G23   29.92F
CHEYENNE WY    PTSUNNY   49  36  61 VRB5      30.08R
SCOTTSBLUFF NE CLOUDY    53  28  38 NE7       30.07R
OMAHA NE       PTSUNNY   69  43  38 S21G28    30.05F
DES MOINES IA  PTSUNNY   68  42  38 S18       30.15F
DAVENPORT IA   SUNNY     58  28  32 SE22      30.29F
CHICAGO IL     MOSUNNY   51  35  54 E8        30.36F
EAU CLAIRE WI  MOSUNNY   51  26  37 S21G28    30.19F
LA CROSSE WI   MOSUNNY   53  27  36 SE14      30.23F
$$

  *****  SOME NATIONAL WEATHER *****

CITY           SKY/WX    TMP DP  RH WIND       PRES   REMARKS
LA GUARDIA NY  PTSUNNY   60  23  24 NW10      30.26F
RALEIGH NC     LGT RAIN  48  45  87 NE12G20   30.20R FOG
ATLANTA GA     CLOUDY    58  54  86 NE18      30.09S
NEW ORLEANS LA MOSUNNY   68  55  63 N8        30.18S
OKLAHOMA CITY  MOSUNNY   72  47  40 S16       30.18S
ALBUQUERQUE NM LGT RAIN  53  39  59 S25G35    30.18R
SALT LAKE CITY PTSUNNY   58  42  55 CALM      30.01S
LOS ANGELES CA MOSUNNY   61  55  81 W5        29.99S
BOISE ID       SUNNY     55  24  30 SE12      29.97S
SEATTLE WA     CLOUDY    47  36  65 SE12      29.77F
$$

*** WEATHER ACROSS MANITOBA...SASKATCHEWAN AND ONTARIO ***
                ***ONTARIO***

CITY           SKY/WX    TMP DP  RH WIND       PRES   REMARKS
GERALDTON      CLOUDY    37  19  48 SE18      30.37F
THUNDER BAY    FLURRIES  34  30  86 E18       30.28F WCI  23
SIOUX LOOKOUT  LGT SNOW  32  30  93 S16G33    29.99F FOG     WCI  21
TORONTO        MOSUNNY   46  30  53 NW5       30.46F
BIG TROUT LK   SUNNY     36  14  41 SE15G22   30.19F
PICKLE LAKE    FLURRIES  36  19  51 SE22G35   30.11F
DRYDEN         LGT RAIN  32  32 100 SE25G38   29.92F WCI  19
KENORA         DRIZZLE   36  32  87 SE20G30   29.79F FOG
$$
                *** MANITOBA***

CITY           SKY/WX    TMP DP  RH WIND       PRES   REMARKS
BRANDON        CLOUDY    41  37  87 W25G31    29.65R
DAUPHIN        CLOUDY    34  32  93 NW7       29.61R FOG
ISLAND LAKE    SNOW      30  30 100 E10G23    29.89  VSB 1/2 WCI  21
PILOT MOUND      N/A     46  36  66 SW17G24     N/A
THE PAS        LGT SNOW  32  30  93 E9        29.72F WCI  24
THOMPSON       CLOUDY    36  16  44 E13       29.91F
WINNIPEG       MOSUNNY   48  39  71 SW15G23   29.69R
LYNN LAKE      PTSUNNY   30  10  43 E13       29.89F WCI  20
CHURCHILL      SUNNY     27  16  63 SE9       30.24F WCI  17
GILLAM         PTSUNNY   30  16  55 NE7       30.08F WCI  23
$$
                ***SASKATCHEWAN***

CITY           SKY/WX    TMP DP  RH WIND       PRES   REMARKS
ESTEVAN        CLOUDY    36  34  93 NW22G30   29.82
KINDERSLEY     CLOUDY    34  30  86 W8        29.87R
LLOYDMINSTER   PTSUNNY   34  30  86 NW7       29.82S
PRINCE ALBERT  CLOUDY    30  27  86 NW10      29.79R WCI  21
REGINA         CLOUDY    34  30  86 NW22G30   29.82R WCI  22
YORKTON        CLOUDY    32  30  93 NW15      29.68R WCI  22
N. BATTLEFORD    N/A    N/A N/A N/A MISG        N/A
LA RONGE       LGT SNOW  30  27  86 NE7       29.82  WCI  23
SASKATOON      CLOUDY    30  27  86 W10       29.84S WCI  21
SWIFT CURRENT  CLOUDY    32  32 100 W17G23    29.86R WCI  21
$$
NOTE: THESE ARE AUTOMATED STATIONS WITH LIMITED QUALITY CONTROL
      "FAIR" INDICATES FEW OR NO CLOUDS BELOW 12,000 FEET WITH NO
      SIGNIFICANT WEATHER AND/OR OBSTRUCTIONS TO VISIBILITY.
      SKY/WX - SKY CONDITION AND SIGNIFICANT WEATHER.
      TMP - AIR TEMPERATURE.    DP   - DEWPOINT TEMPERATURE.
      RH  - RELATIVE HUMIDITY.  PRES - PRESSURE.
      HX  - HEAT INDEX.         WCI  - WIND CHILL INDEX.
$



USA.gov is the U.S. government's official web portal to all federal, state and local government web resources and services.